Weather in Semeno-Aleksandrovka

Russia / Voronezh Oblast     51°02′27″N   40°12′53″E
temp.,
°C
wind,
m/s
gust,
m/s
humid.,
%
clouds,
%
prec.,
mm/h
press.,
hPa
HPBL,
m
22 june, tue
tue2200:00+20e412770 0.0 1019192
03:00+20e513700 0.0 1019217
06:00+21e412760 0.0 1019224
09:00+27e61062100 0.0 1019474
12:00+31e684632 0.0 10191199
15:00+32e57438 0.0 10182077
18:00+30ene48575 0.0 1018338
21:00+24ene4127099 0.0 1018210
23 june, wed
wed2300:00+22e412678 0.0 1018199
03:00+21ene512712 0.0 1018206
06:00+22ene5127290 0.0 1018223
09:00+27e585286 0.0 1018460
12:00+31e564177 0.0 1018865
15:00+32e4542100 0.0 1018977
18:00+29ene3561100 0.0 1018182
21:00+25e367587 0.0 101895
24 june, thu
thu2400:00+23ene467448 0.0 101887
03:00+21ene47755 0.0 1018107
06:00+22e38793 0.0 1019189
09:00+28ene46585 0.0 1019517
12:00+32ene454713 0.0 10181132
15:00+32ene554490 0.0 10181607
18:00+30ne3556100 0.0 1017237
21:00+24ene3373100 0.0 101738
25 june, fri
fri2500:00+22ene347888 0.0 101759
03:00+21ne358493 0.0 101773
06:00+22ene378362 0.0 1017177
09:00+27ene456349 0.0 1017589
12:00+31e334974 0.0 10161611
15:00+32e3342100 0.0 10152209
18:00+31e235496 0.0 1014149
21:00+25ese33677 0.0 101328
26 june, sat
sat2600:00+23e227338 0.0 101418
03:00+22ese3373100 0.0 101335
06:00+23ese247541 0.0 1014119
09:00+28ese235535 0.0 1014614
12:00+31e224510 0.0 10131443
15:00+32e323822 0.0 10122169
18:00+31ese23487 0.0 1012737
21:00+25se11594 0.0 101112